contact:dominique.lefevre@mio.osupytheas.fr, maurice.libes@osupytheas.fr, didier.mallarino@osupytheas.fr
Project:EMSO http://www.emso-fr.org/EMSO-France
Depth: 2436.0 m
Title:EMSO Ligure Ouest : Data MII capteur MICROCAT
DateTime_Computer,Latitude,Longitude,Temperature,Conductivity,Pressure,DateTime_Instrument
DateTime_Computer,Latitude,Longitude,degC,S m-1,dbar,DateTime_Instrument
2021-09-06T00:01:48Z,42.805,6.029,13.2988,4.60000,2470.366,2021-9-06T02:03:08Z
2021-09-06T00:04:51Z,42.805,6.029,13.2987,4.60002,2470.38,2021-9-06T02:06:11Z
2021-09-06T00:07:54Z,42.805,6.029,13.2988,4.59999,2470.366,2021-9-06T02:09:15Z
2021-09-06T00:10:57Z,42.805,6.029,13.2985,4.60000,2470.343,2021-9-06T02:12:18Z
2021-09-06T00:14:01Z,42.805,6.029,13.2988,4.59999,2470.38,2021-9-06T02:15:21Z
2021-09-06T00:17:04Z,42.805,6.029,13.2984,4.60001,2470.343,2021-9-06T02:18:24Z
2021-09-06T00:20:07Z,42.805,6.029,13.2987,4.59999,2470.38,2021-9-06T02:21:27Z
2021-09-06T00:23:10Z,42.805,6.029,13.2989,4.60001,2470.413,2021-9-06T02:24:30Z
2021-09-06T00:26:13Z,42.805,6.029,13.2986,4.59999,2470.334,2021-9-06T02:27:33Z
2021-09-06T00:29:16Z,42.805,6.029,13.2984,4.60000,2470.366,2021-9-06T02:30:36Z
2021-09-06T00:32:19Z,42.805,6.029,13.2989,4.59999,2470.343,2021-9-06T02:33:40Z
2021-09-06T00:35:22Z,42.805,6.029,13.2990,4.59999,2470.357,2021-9-06T02:36:43Z
2021-09-06T00:38:26Z,42.805,6.029,13.2986,4.59999,2470.39,2021-9-06T02:39:46Z
2021-09-06T00:41:29Z,42.805,6.029,13.2988,4.59999,2470.357,2021-9-06T02:42:49Z
2021-09-06T00:44:32Z,42.805,6.029,13.2989,4.59999,2470.38,2021-9-06T02:45:52Z
2021-09-06T00:47:35Z,42.805,6.029,13.2990,4.60000,2470.357,2021-9-06T02:48:55Z
2021-09-06T00:50:38Z,42.805,6.029,13.2985,4.60000,2470.404,2021-9-06T02:51:58Z
2021-09-06T00:53:41Z,42.805,6.029,13.2986,4.60001,2470.366,2021-9-06T02:55:01Z
2021-09-06T00:56:44Z,42.805,6.029,13.2991,4.59999,2470.38,2021-9-06T02:58:04Z
2021-09-06T00:59:47Z,42.805,6.029,13.2986,4.59999,2470.39,2021-9-06T03:01:08Z
2021-09-06T01:02:50Z,42.805,6.029,13.2987,4.59999,2470.38,2021-9-06T03:04:11Z
2021-09-06T01:05:54Z,42.805,6.029,13.2984,4.59999,2470.343,2021-9-06T03:07:14Z
2021-09-06T01:08:57Z,42.805,6.029,13.2991,4.59999,2470.334,2021-9-06T03:10:17Z
2021-09-06T01:12:00Z,42.805,6.029,13.2990,4.59998,2470.343,2021-9-06T03:13:20Z
2021-09-06T01:15:03Z,42.805,6.029,13.2985,4.59999,2470.334,2021-9-06T03:16:23Z
2021-09-06T01:18:06Z,42.805,6.029,13.2988,4.59999,2470.32,2021-9-06T03:19:26Z
2021-09-06T01:21:09Z,42.805,6.029,13.2983,4.59998,2470.357,2021-9-06T03:22:29Z
2021-09-06T01:24:12Z,42.805,6.029,13.2988,4.60000,2470.334,2021-9-06T03:25:33Z
2021-09-06T01:27:15Z,42.805,6.029,13.2986,4.59999,2470.334,2021-9-06T03:28:36Z
2021-09-06T01:30:18Z,42.805,6.029,13.2988,4.59999,2470.334,2021-9-06T03:31:39Z
2021-09-06T01:33:22Z,42.805,6.029,13.2988,4.60000,2470.366,2021-9-06T03:34:42Z
2021-09-06T01:36:25Z,42.805,6.029,13.2986,4.59998,2470.32,2021-9-06T03:37:45Z
2021-09-06T01:39:28Z,42.805,6.029,13.2985,4.59998,2470.343,2021-9-06T03:40:48Z
2021-09-06T01:42:31Z,42.805,6.029,13.2988,4.60001,2470.334,2021-9-06T03:43:51Z
2021-09-06T01:45:34Z,42.805,6.029,13.2987,4.59999,2470.334,2021-9-06T03:46:54Z
2021-09-06T01:48:37Z,42.805,6.029,13.2984,4.59999,2470.366,2021-9-06T03:49:57Z
2021-09-06T01:51:40Z,42.805,6.029,13.2984,4.59999,2470.32,2021-9-06T03:53:01Z
2021-09-06T01:54:43Z,42.805,6.029,13.2983,4.60001,2470.357,2021-9-06T03:56:04Z
2021-09-06T01:57:47Z,42.805,6.029,13.2989,4.60001,2470.343,2021-9-06T03:59:07Z
2021-09-06T02:00:50Z,42.805,6.029,13.2985,4.59998,2470.38,2021-9-06T04:02:10Z
2021-09-06T02:03:53Z,42.805,6.029,13.2983,4.59998,2470.343,2021-9-06T04:05:13Z
2021-09-06T02:06:56Z,42.805,6.029,13.2986,4.59998,2470.343,2021-9-06T04:08:16Z
2021-09-06T02:09:59Z,42.805,6.029,13.2990,4.59998,2470.334,2021-9-06T04:11:19Z
2021-09-06T02:13:02Z,42.805,6.029,13.2985,4.59998,2470.297,2021-9-06T04:14:22Z
2021-09-06T02:16:05Z,42.805,6.029,13.2987,4.59999,2470.343,2021-9-06T04:17:25Z
2021-09-06T02:19:08Z,42.805,6.029,13.2988,4.59999,2470.366,2021-9-06T04:20:29Z
2021-09-06T02:22:11Z,42.805,6.029,13.2985,4.59997,2470.343,2021-9-06T04:23:32Z
2021-09-06T02:25:15Z,42.805,6.029,13.2984,4.59998,2470.32,2021-9-06T04:26:35Z
2021-09-06T02:28:18Z,42.805,6.029,13.2983,4.59999,2470.343,2021-9-06T04:29:38Z
2021-09-06T02:31:21Z,42.805,6.029,13.2990,4.59997,2470.366,2021-9-06T04:32:41Z
2021-09-06T02:34:24Z,42.805,6.029,13.2988,4.59999,2470.343,2021-9-06T04:35:44Z
2021-09-06T02:37:27Z,42.805,6.029,13.2985,4.59998,2470.32,2021-9-06T04:38:47Z
2021-09-06T02:40:30Z,42.805,6.029,13.2989,4.59998,2470.32,2021-9-06T04:41:50Z
2021-09-06T02:43:33Z,42.805,6.029,13.2986,4.59999,2470.366,2021-9-06T04:44:54Z
2021-09-06T02:46:36Z,42.805,6.029,13.2983,4.59998,2470.343,2021-9-06T04:47:57Z
2021-09-06T02:49:40Z,42.805,6.029,13.2990,4.59999,2470.357,2021-9-06T04:51:00Z
2021-09-06T02:52:43Z,42.805,6.029,13.2986,4.59998,2470.32,2021-9-06T04:54:03Z
2021-09-06T02:55:46Z,42.805,6.029,13.2983,4.59999,2470.404,2021-9-06T04:57:06Z
2021-09-06T02:58:49Z,42.805,6.029,13.2985,4.59997,2470.38,2021-9-06T05:00:09Z
2021-09-06T03:01:52Z,42.805,6.029,13.2990,4.59998,2470.343,2021-9-06T05:03:12Z
2021-09-06T03:04:55Z,42.805,6.029,13.2989,4.59997,2470.343,2021-9-06T05:06:15Z
2021-09-06T03:07:58Z,42.805,6.029,13.2986,4.60000,2470.32,2021-9-06T05:09:18Z
2021-09-06T03:11:01Z,42.805,6.029,13.2988,4.59999,2470.343,2021-9-06T05:12:22Z
2021-09-06T03:14:04Z,42.805,6.029,13.2982,4.59999,2470.334,2021-9-06T05:15:25Z
2021-09-06T03:17:08Z,42.805,6.029,13.2986,4.59998,2470.343,2021-9-06T05:18:28Z
2021-09-06T03:20:11Z,42.805,6.029,13.2986,4.60001,2470.334,2021-9-06T05:21:31Z
2021-09-06T03:23:14Z,42.805,6.029,13.2990,4.59998,2470.343,2021-9-06T05:24:34Z
2021-09-06T03:26:17Z,42.805,6.029,13.2986,4.59999,2470.39,2021-9-06T05:27:37Z
2021-09-06T03:29:20Z,42.805,6.029,13.2988,4.59998,2470.366,2021-9-06T05:30:40Z
2021-09-06T03:32:23Z,42.805,6.029,13.2986,4.60004,2470.39,2021-9-06T05:33:43Z
2021-09-06T03:35:26Z,42.805,6.029,13.2990,4.59998,2470.366,2021-9-06T05:36:47Z
2021-09-06T03:38:29Z,42.805,6.029,13.2996,4.59999,2470.32,2021-9-06T05:39:50Z
2021-09-06T03:41:32Z,42.805,6.029,13.2984,4.59999,2470.38,2021-9-06T05:42:53Z
2021-09-06T03:44:36Z,42.805,6.029,13.2984,4.59998,2470.39,2021-9-06T05:45:56Z
2021-09-06T03:47:39Z,42.805,6.029,13.2987,4.60001,2470.413,2021-9-06T05:48:59Z
2021-09-06T03:50:42Z,42.805,6.029,13.2983,4.60001,2470.427,2021-9-06T05:52:02Z
2021-09-06T03:53:45Z,42.805,6.029,13.2984,4.59999,2470.413,2021-9-06T05:55:05Z
2021-09-06T03:56:48Z,42.805,6.029,13.2990,4.60001,2470.39,2021-9-06T05:58:08Z
2021-09-06T03:59:51Z,42.805,6.029,13.2983,4.59999,2470.39,2021-9-06T06:01:11Z
2021-09-06T04:02:54Z,42.805,6.029,13.2990,4.59999,2470.366,2021-9-06T06:04:15Z
2021-09-06T04:05:57Z,42.805,6.029,13.2983,4.60002,2470.39,2021-9-06T06:07:18Z
2021-09-06T04:09:01Z,42.805,6.029,13.2986,4.60000,2470.404,2021-9-06T06:10:21Z
2021-09-06T04:12:04Z,42.805,6.029,13.2986,4.59998,2470.39,2021-9-06T06:13:24Z
2021-09-06T04:15:07Z,42.805,6.029,13.2987,4.59999,2470.39,2021-9-06T06:16:27Z
2021-09-06T04:18:10Z,42.805,6.029,13.2986,4.59998,2470.413,2021-9-06T06:19:30Z
2021-09-06T04:21:13Z,42.805,6.029,13.2988,4.60001,2470.39,2021-9-06T06:22:33Z
2021-09-06T04:24:16Z,42.805,6.029,13.2986,4.60003,2470.427,2021-9-06T06:25:36Z
2021-09-06T04:27:19Z,42.805,6.029,13.2990,4.60006,2470.413,2021-9-06T06:28:40Z
2021-09-06T04:30:22Z,42.805,6.029,13.2986,4.59999,2470.427,2021-9-06T06:31:43Z
2021-09-06T04:33:26Z,42.805,6.029,13.2988,4.60002,2470.413,2021-9-06T06:34:46Z
2021-09-06T04:36:29Z,42.805,6.029,13.2987,4.60001,2470.427,2021-9-06T06:37:49Z
2021-09-06T04:39:32Z,42.805,6.029,13.2987,4.60005,2470.437,2021-9-06T06:40:52Z
2021-09-06T04:42:35Z,42.805,6.029,13.2991,4.59999,2470.437,2021-9-06T06:43:55Z
2021-09-06T04:45:38Z,42.805,6.029,13.2990,4.60001,2470.427,2021-9-06T06:46:58Z
2021-09-06T04:48:41Z,42.805,6.029,13.2987,4.60001,2470.413,2021-9-06T06:50:01Z
2021-09-06T04:51:44Z,42.805,6.029,13.2983,4.59999,2470.413,2021-9-06T06:53:04Z
2021-09-06T04:54:47Z,42.805,6.029,13.2990,4.60000,2470.413,2021-9-06T06:56:08Z
2021-09-06T04:57:50Z,42.805,6.029,13.2986,4.60004,2470.404,2021-9-06T06:59:11Z
2021-09-06T05:00:54Z,42.805,6.029,13.2986,4.60002,2470.46,2021-9-06T07:02:14Z
2021-09-06T05:03:57Z,42.805,6.029,13.2990,4.60003,2470.45,2021-9-06T07:05:17Z
2021-09-06T05:07:00Z,42.805,6.029,13.2980,4.60003,2470.45,2021-9-06T07:08:20Z
2021-09-06T05:10:03Z,42.805,6.029,13.2986,4.60001,2470.474,2021-9-06T07:11:23Z
2021-09-06T05:13:06Z,42.805,6.029,13.2989,4.59999,2470.45,2021-9-06T07:14:26Z
2021-09-06T05:16:09Z,42.805,6.029,13.2988,4.60005,2470.46,2021-9-06T07:17:29Z
2021-09-06T05:19:12Z,42.805,6.029,13.2986,4.60001,2470.437,2021-9-06T07:20:33Z
2021-09-06T05:22:15Z,42.805,6.029,13.2991,4.60003,2470.437,2021-9-06T07:23:36Z
2021-09-06T05:25:18Z,42.805,6.029,13.2985,4.60000,2470.413,2021-9-06T07:26:39Z
2021-09-06T05:28:22Z,42.805,6.029,13.2990,4.60003,2470.437,2021-9-06T07:29:42Z
2021-09-06T05:31:25Z,42.805,6.029,13.2988,4.59999,2470.474,2021-9-06T07:32:45Z
2021-09-06T05:34:28Z,42.805,6.029,13.2988,4.60001,2470.474,2021-9-06T07:35:48Z
2021-09-06T05:37:31Z,42.805,6.029,13.2991,4.59999,2470.413,2021-9-06T07:38:51Z
2021-09-06T05:40:34Z,42.805,6.029,13.2986,4.59999,2470.446,2021-9-06T07:41:54Z
2021-09-06T05:43:37Z,42.805,6.029,13.2987,4.60004,2470.507,2021-9-06T07:44:57Z
2021-09-06T05:46:40Z,42.805,6.029,13.2984,4.59999,2470.474,2021-9-06T07:48:01Z
2021-09-06T05:49:43Z,42.805,6.029,13.2987,4.59999,2470.46,2021-9-06T07:51:04Z
2021-09-06T05:52:47Z,42.805,6.029,13.2989,4.59999,2470.474,2021-9-06T07:54:07Z
2021-09-06T05:55:50Z,42.805,6.029,13.2987,4.60001,2470.474,2021-9-06T07:57:10Z
2021-09-06T05:58:53Z,42.805,6.029,13.2986,4.59999,2470.46,2021-9-06T08:00:13Z
2021-09-06T06:01:56Z,42.805,6.029,13.2990,4.60001,2470.474,2021-9-06T08:03:16Z
2021-09-06T06:04:59Z,42.805,6.029,13.2988,4.60006,2470.46,2021-9-06T08:06:19Z
2021-09-06T06:08:02Z,42.805,6.029,13.2987,4.59999,2470.497,2021-9-06T08:09:22Z
2021-09-06T06:11:05Z,42.805,6.029,13.2987,4.60002,2470.497,2021-9-06T08:12:26Z
2021-09-06T06:14:08Z,42.805,6.029,13.2986,4.60001,2470.497,2021-9-06T08:15:29Z
2021-09-06T06:17:11Z,42.805,6.029,13.2989,4.59999,2470.46,2021-9-06T08:18:32Z
2021-09-06T06:20:15Z,42.805,6.029,13.2990,4.60000,2470.474,2021-9-06T08:21:35Z
2021-09-06T06:23:18Z,42.805,6.029,13.2988,4.60001,2470.437,2021-9-06T08:24:38Z
2021-09-06T06:26:21Z,42.805,6.029,13.2989,4.60003,2470.437,2021-9-06T08:27:41Z
2021-09-06T06:29:24Z,42.805,6.029,13.2986,4.60006,2470.437,2021-9-06T08:30:44Z
2021-09-06T06:32:27Z,42.805,6.029,13.2987,4.60005,2470.46,2021-9-06T08:33:47Z
2021-09-06T06:35:30Z,42.805,6.029,13.2990,4.60006,2470.46,2021-9-06T08:36:50Z
2021-09-06T06:38:33Z,42.805,6.029,13.2987,4.59999,2470.427,2021-9-06T08:39:54Z
2021-09-06T06:41:36Z,42.805,6.029,13.2989,4.59999,2470.507,2021-9-06T08:42:57Z
2021-09-06T06:44:40Z,42.805,6.029,13.2983,4.60002,2470.497,2021-9-06T08:46:00Z
2021-09-06T06:47:43Z,42.805,6.029,13.2986,4.60005,2470.483,2021-9-06T08:49:03Z
2021-09-06T06:50:46Z,42.805,6.029,13.2983,4.60001,2470.474,2021-9-06T08:52:06Z
2021-09-06T06:53:49Z,42.805,6.029,13.2988,4.60001,2470.483,2021-9-06T08:55:09Z
2021-09-06T06:56:52Z,42.805,6.029,13.2991,4.60001,2470.497,2021-9-06T08:58:12Z
2021-09-06T06:59:55Z,42.805,6.029,13.2983,4.60001,2470.437,2021-9-06T09:01:15Z
2021-09-06T07:02:58Z,42.805,6.029,13.2990,4.60002,2470.46,2021-9-06T09:04:19Z
2021-09-06T07:06:01Z,42.805,6.029,13.2986,4.60004,2470.437,2021-9-06T09:07:22Z
2021-09-06T07:09:04Z,42.805,6.029,13.2990,4.60005,2470.483,2021-9-06T09:10:25Z
2021-09-06T07:12:08Z,42.805,6.029,13.2989,4.60013,2470.437,2021-9-06T09:13:28Z
2021-09-06T07:15:11Z,42.805,6.029,13.2984,4.60003,2470.437,2021-9-06T09:16:31Z
2021-09-06T07:18:14Z,42.805,6.029,13.2989,4.60008,2470.437,2021-9-06T09:19:34Z
2021-09-06T07:21:17Z,42.805,6.029,13.2988,4.60011,2470.437,2021-9-06T09:22:37Z
2021-09-06T07:24:20Z,42.805,6.029,13.2985,4.60004,2470.427,2021-9-06T09:25:40Z
2021-09-06T07:27:23Z,42.805,6.029,13.2993,4.60000,2470.474,2021-9-06T09:28:43Z
2021-09-06T07:30:26Z,42.805,6.029,13.2998,4.60003,2470.45,2021-9-06T09:31:47Z
2021-09-06T07:33:29Z,42.805,6.029,13.2986,4.60003,2470.437,2021-9-06T09:34:50Z
2021-09-06T07:36:33Z,42.805,6.029,13.2993,4.60004,2470.474,2021-9-06T09:37:53Z
2021-09-06T07:39:36Z,42.805,6.029,13.2990,4.60004,2470.45,2021-9-06T09:40:56Z
2021-09-06T07:42:39Z,42.805,6.029,13.2990,4.60001,2470.437,2021-9-06T09:43:59Z
2021-09-06T07:45:42Z,42.805,6.029,13.2986,4.60003,2470.437,2021-9-06T09:47:02Z
2021-09-06T07:48:45Z,42.805,6.029,13.2986,4.60009,2470.474,2021-9-06T09:50:05Z
2021-09-06T07:51:48Z,42.805,6.029,13.2989,4.60006,2470.46,2021-9-06T09:53:08Z
2021-09-06T07:54:51Z,42.805,6.029,13.2989,4.60004,2470.45,2021-9-06T09:56:12Z
2021-09-06T07:57:54Z,42.805,6.029,13.2986,4.60010,2470.437,2021-9-06T09:59:15Z
2021-09-06T08:00:57Z,42.805,6.029,13.2997,4.60002,2470.46,2021-9-06T10:02:18Z
2021-09-06T08:04:01Z,42.805,6.029,13.2989,4.60003,2470.437,2021-9-06T10:05:21Z
2021-09-06T08:07:04Z,42.805,6.029,13.2986,4.60007,2470.474,2021-9-06T10:08:24Z
2021-09-06T08:10:07Z,42.805,6.029,13.2987,4.60014,2470.497,2021-9-06T10:11:27Z
2021-09-06T08:13:10Z,42.805,6.029,13.2986,4.60010,2470.45,2021-9-06T10:14:30Z
2021-09-06T08:16:13Z,42.805,6.029,13.2989,4.60001,2470.446,2021-9-06T10:17:33Z
2021-09-06T08:19:16Z,42.805,6.029,13.2984,4.60001,2470.474,2021-9-06T10:20:36Z
2021-09-06T08:22:19Z,42.805,6.029,13.2985,4.60002,2470.413,2021-9-06T10:23:40Z
2021-09-06T08:25:22Z,42.805,6.029,13.2982,4.60000,2470.46,2021-9-06T10:26:43Z
2021-09-06T08:28:26Z,42.805,6.029,13.2986,4.60002,2470.45,2021-9-06T10:29:46Z
2021-09-06T08:31:29Z,42.805,6.029,13.2988,4.60002,2470.437,2021-9-06T10:32:49Z
2021-09-06T08:34:32Z,42.805,6.029,13.2989,4.60002,2470.437,2021-9-06T10:35:52Z
2021-09-06T08:37:35Z,42.805,6.029,13.2986,4.60006,2470.437,2021-9-06T10:38:55Z
2021-09-06T08:40:38Z,42.805,6.029,13.2984,4.60003,2470.437,2021-9-06T10:41:58Z
2021-09-06T08:43:41Z,42.805,6.029,13.2989,4.60002,2470.45,2021-9-06T10:45:01Z
2021-09-06T08:46:44Z,42.805,6.029,13.2985,4.60003,2470.427,2021-9-06T10:48:05Z
2021-09-06T08:49:47Z,42.805,6.029,13.2986,4.60003,2470.45,2021-9-06T10:51:08Z
2021-09-06T08:52:51Z,42.805,6.029,13.2982,4.60003,2470.413,2021-9-06T10:54:11Z
2021-09-06T08:55:54Z,42.805,6.029,13.2986,4.60004,2470.413,2021-9-06T10:57:14Z
2021-09-06T08:58:57Z,42.805,6.029,13.2989,4.60004,2470.45,2021-9-06T11:00:17Z
2021-09-06T09:02:00Z,42.805,6.029,13.2987,4.60005,2470.427,2021-9-06T11:03:20Z
2021-09-06T09:05:03Z,42.805,6.029,13.2990,4.60002,2470.46,2021-9-06T11:06:23Z
2021-09-06T09:08:06Z,42.805,6.029,13.2987,4.60003,2470.413,2021-9-06T11:09:26Z
2021-09-06T09:11:09Z,42.805,6.029,13.2988,4.60007,2470.413,2021-9-06T11:12:30Z
2021-09-06T09:14:12Z,42.805,6.029,13.2987,4.60009,2470.404,2021-9-06T11:15:33Z
2021-09-06T09:17:16Z,42.805,6.029,13.2984,4.60009,2470.427,2021-9-06T11:18:36Z
2021-09-06T09:20:19Z,42.805,6.029,13.2987,4.60012,2470.45,2021-9-06T11:21:39Z
2021-09-06T09:23:22Z,42.805,6.029,13.2986,4.60012,2470.427,2021-9-06T11:24:42Z
2021-09-06T09:26:25Z,42.805,6.029,13.2989,4.60007,2470.39,2021-9-06T11:27:45Z
2021-09-06T09:29:28Z,42.805,6.029,13.2990,4.60003,2470.39,2021-9-06T11:30:48Z
2021-09-06T09:32:31Z,42.805,6.029,13.2990,4.60006,2470.404,2021-9-06T11:33:51Z
2021-09-06T09:35:34Z,42.805,6.029,13.2984,4.60003,2470.427,2021-9-06T11:36:55Z
2021-09-06T09:38:37Z,42.805,6.029,13.2988,4.60006,2470.39,2021-9-06T11:39:58Z
2021-09-06T09:41:41Z,42.805,6.029,13.2983,4.60008,2470.39,2021-9-06T11:43:01Z
2021-09-06T09:44:44Z,42.805,6.029,13.2986,4.60004,2470.39,2021-9-06T11:46:04Z
2021-09-06T09:47:47Z,42.805,6.029,13.2985,4.60007,2470.39,2021-9-06T11:49:07Z
2021-09-06T09:50:50Z,42.805,6.029,13.2989,4.60009,2470.39,2021-9-06T11:52:10Z
2021-09-06T09:53:53Z,42.805,6.029,13.2987,4.60003,2470.413,2021-9-06T11:55:13Z
2021-09-06T09:56:56Z,42.805,6.029,13.2986,4.60008,2470.413,2021-9-06T11:58:16Z
2021-09-06T09:59:59Z,42.805,6.029,13.2989,4.60006,2470.427,2021-9-06T12:01:20Z
2021-09-06T10:03:02Z,42.805,6.029,13.2986,4.60003,2470.38,2021-9-06T12:04:23Z
2021-09-06T10:06:05Z,42.805,6.029,13.2987,4.60002,2470.39,2021-9-06T12:07:26Z
2021-09-06T10:09:09Z,42.805,6.029,13.2990,4.60006,2470.413,2021-9-06T12:10:29Z
2021-09-06T10:12:12Z,42.805,6.029,13.2983,4.60006,2470.366,2021-9-06T12:13:32Z
2021-09-06T10:15:15Z,42.805,6.029,13.2988,4.60005,2470.343,2021-9-06T12:16:35Z
2021-09-06T10:18:18Z,42.805,6.029,13.2989,4.60006,2470.366,2021-9-06T12:19:38Z
2021-09-06T10:21:21Z,42.805,6.029,13.2989,4.60006,2470.343,2021-9-06T12:22:41Z
2021-09-06T10:24:24Z,42.805,6.029,13.2988,4.60008,2470.366,2021-9-06T12:25:45Z
2021-09-06T10:27:27Z,42.805,6.029,13.2987,4.60007,2470.38,2021-9-06T12:28:48Z
2021-09-06T10:30:30Z,42.805,6.029,13.2987,4.60001,2470.39,2021-9-06T12:31:51Z
2021-09-06T10:33:34Z,42.805,6.029,13.2987,4.60001,2470.357,2021-9-06T12:34:54Z
2021-09-06T10:36:37Z,42.805,6.029,13.2990,4.60003,2470.38,2021-9-06T12:37:57Z
2021-09-06T10:39:40Z,42.805,6.029,13.2986,4.60003,2470.366,2021-9-06T12:41:00Z
2021-09-06T10:42:43Z,42.805,6.029,13.2985,4.60006,2470.366,2021-9-06T12:44:03Z
2021-09-06T10:45:46Z,42.805,6.029,13.2987,4.60002,2470.357,2021-9-06T12:47:06Z
2021-09-06T10:48:49Z,42.805,6.029,13.2986,4.60003,2470.357,2021-9-06T12:50:09Z
2021-09-06T10:51:52Z,42.805,6.029,13.2989,4.60005,2470.357,2021-9-06T12:53:13Z
2021-09-06T10:54:55Z,42.805,6.029,13.2986,4.60009,2470.32,2021-9-06T12:56:16Z
2021-09-06T10:57:59Z,42.805,6.029,13.2986,4.60003,2470.343,2021-9-06T12:59:19Z
2021-09-06T11:01:02Z,42.805,6.029,13.2984,4.60005,2470.343,2021-9-06T13:02:22Z
2021-09-06T11:04:05Z,42.805,6.029,13.2982,4.60003,2470.32,2021-9-06T13:05:25Z
2021-09-06T11:07:08Z,42.805,6.029,13.2988,4.60004,2470.334,2021-9-06T13:08:28Z
2021-09-06T11:10:11Z,42.805,6.029,13.2991,4.60003,2470.32,2021-9-06T13:11:31Z
2021-09-06T11:13:14Z,42.805,6.029,13.2985,4.60003,2470.32,2021-9-06T13:14:34Z
2021-09-06T11:16:17Z,42.805,6.029,13.2988,4.60003,2470.32,2021-9-06T13:17:38Z
2021-09-06T11:19:20Z,42.805,6.029,13.2987,4.60002,2470.334,2021-9-06T13:20:41Z
2021-09-06T11:22:24Z,42.805,6.029,13.2990,4.60002,2470.357,2021-9-06T13:23:44Z
2021-09-06T11:25:27Z,42.805,6.029,13.2990,4.60005,2470.31,2021-9-06T13:26:47Z
2021-09-06T11:28:30Z,42.805,6.029,13.2988,4.60003,2470.32,2021-9-06T13:29:50Z
2021-09-06T11:31:33Z,42.805,6.029,13.2991,4.60006,2470.334,2021-9-06T13:32:53Z
2021-09-06T11:34:36Z,42.805,6.029,13.2984,4.60003,2470.297,2021-9-06T13:35:56Z
2021-09-06T11:37:39Z,42.805,6.029,13.2990,4.60003,2470.31,2021-9-06T13:38:59Z
2021-09-06T11:40:42Z,42.805,6.029,13.2989,4.60003,2470.32,2021-9-06T13:42:03Z
2021-09-06T11:43:45Z,42.805,6.029,13.2983,4.60004,2470.32,2021-9-06T13:45:06Z
2021-09-06T11:46:49Z,42.805,6.029,13.2989,4.60005,2470.297,2021-9-06T13:48:09Z
2021-09-06T11:49:52Z,42.805,6.029,13.2988,4.60003,2470.334,2021-9-06T13:51:12Z
2021-09-06T11:52:55Z,42.805,6.029,13.2986,4.60003,2470.297,2021-9-06T13:54:15Z
2021-09-06T11:55:58Z,42.805,6.029,13.2983,4.60002,2470.32,2021-9-06T13:57:18Z
2021-09-06T11:59:01Z,42.805,6.029,13.2986,4.60005,2470.343,2021-9-06T14:00:21Z
2021-09-06T12:02:04Z,42.805,6.029,13.2989,4.60003,2470.297,2021-9-06T14:03:24Z
2021-09-06T12:05:07Z,42.805,6.029,13.2990,4.60003,2470.334,2021-9-06T14:06:28Z
2021-09-06T12:08:10Z,42.805,6.029,13.2986,4.60003,2470.297,2021-9-06T14:09:31Z
2021-09-06T12:11:13Z,42.805,6.029,13.2988,4.60005,2470.32,2021-9-06T14:12:34Z
2021-09-06T12:14:17Z,42.805,6.029,13.2989,4.60004,2470.287,2021-9-06T14:15:37Z
2021-09-06T12:17:20Z,42.805,6.029,13.2989,4.60005,2470.273,2021-9-06T14:18:40Z
2021-09-06T12:20:23Z,42.805,6.029,13.2986,4.60004,2470.32,2021-9-06T14:21:43Z
2021-09-06T12:23:26Z,42.805,6.029,13.2985,4.60003,2470.297,2021-9-06T14:24:46Z
2021-09-06T12:26:29Z,42.805,6.029,13.2990,4.60004,2470.343,2021-9-06T14:27:49Z
2021-09-06T12:29:32Z,42.805,6.029,13.2988,4.60003,2470.357,2021-9-06T14:30:53Z
2021-09-06T12:32:35Z,42.805,6.029,13.2984,4.60002,2470.343,2021-9-06T14:33:56Z
2021-09-06T12:35:38Z,42.805,6.029,13.2984,4.60001,2470.334,2021-9-06T14:36:59Z
2021-09-06T12:38:42Z,42.805,6.029,13.2988,4.60003,2470.297,2021-9-06T14:40:02Z
2021-09-06T12:41:45Z,42.805,6.029,13.2990,4.60005,2470.32,2021-9-06T14:43:05Z
2021-09-06T12:44:48Z,42.805,6.029,13.2984,4.60001,2470.334,2021-9-06T14:46:08Z
2021-09-06T12:47:51Z,42.805,6.029,13.2987,4.60003,2470.32,2021-9-06T14:49:11Z
2021-09-06T12:50:54Z,42.805,6.029,13.2990,4.60003,2470.32,2021-9-06T14:52:14Z
2021-09-06T12:53:57Z,42.805,6.029,13.2983,4.60000,2470.297,2021-9-06T14:55:18Z
2021-09-06T12:57:00Z,42.805,6.029,13.2987,4.60003,2470.32,2021-9-06T14:58:21Z
2021-09-06T13:00:03Z,42.805,6.029,13.2985,4.60002,2470.343,2021-9-06T15:01:24Z
2021-09-06T13:03:07Z,42.805,6.029,13.2988,4.60001,2470.32,2021-9-06T15:04:27Z
2021-09-06T13:06:10Z,42.805,6.029,13.2987,4.60002,2470.32,2021-9-06T15:07:30Z
2021-09-06T13:09:13Z,42.805,6.029,13.2987,4.60001,2470.287,2021-9-06T15:10:33Z
2021-09-06T13:12:16Z,42.805,6.029,13.2990,4.60001,2470.287,2021-9-06T15:13:36Z
2021-09-06T13:15:19Z,42.805,6.029,13.2988,4.60003,2470.273,2021-9-06T15:16:39Z
2021-09-06T13:18:22Z,42.805,6.029,13.2987,4.60004,2470.297,2021-9-06T15:19:43Z
2021-09-06T13:21:25Z,42.805,6.029,13.2987,4.60001,2470.32,2021-9-06T15:22:46Z
2021-09-06T13:24:28Z,42.805,6.029,13.2989,4.60001,2470.287,2021-9-06T15:25:49Z
2021-09-06T13:27:32Z,42.805,6.029,13.2984,4.60002,2470.31,2021-9-06T15:28:52Z
2021-09-06T13:30:35Z,42.805,6.029,13.2985,4.60004,2470.287,2021-9-06T15:31:55Z
2021-09-06T13:33:38Z,42.805,6.029,13.2986,4.60004,2470.31,2021-9-06T15:34:58Z
2021-09-06T13:36:41Z,42.805,6.029,13.2986,4.60001,2470.287,2021-9-06T15:38:01Z
2021-09-06T13:39:44Z,42.805,6.029,13.2988,4.60004,2470.31,2021-9-06T15:41:04Z
2021-09-06T13:42:47Z,42.805,6.029,13.2984,4.60002,2470.25,2021-9-06T15:44:07Z
2021-09-06T13:45:50Z,42.805,6.029,13.2986,4.60001,2470.306,2021-9-06T15:47:11Z
2021-09-06T13:48:53Z,42.805,6.029,13.2983,4.60002,2470.297,2021-9-06T15:50:14Z
2021-09-06T13:51:57Z,42.805,6.029,13.2988,4.60002,2470.297,2021-9-06T15:53:17Z
2021-09-06T13:55:00Z,42.805,6.029,13.2983,4.60001,2470.31,2021-9-06T15:56:20Z
2021-09-06T13:58:03Z,42.805,6.029,13.2987,4.60001,2470.334,2021-9-06T15:59:23Z
2021-09-06T14:01:06Z,42.805,6.029,13.2990,4.60001,2470.297,2021-9-06T16:02:26Z
2021-09-06T14:04:09Z,42.805,6.029,13.2984,4.59999,2470.32,2021-9-06T16:05:29Z
2021-09-06T14:07:12Z,42.805,6.029,13.2991,4.60002,2470.31,2021-9-06T16:08:32Z
2021-09-06T14:10:15Z,42.805,6.029,13.2989,4.60001,2470.31,2021-9-06T16:11:36Z
2021-09-06T14:13:18Z,42.805,6.029,13.2988,4.60001,2470.297,2021-9-06T16:14:39Z
2021-09-06T14:16:22Z,42.805,6.029,13.2988,4.60003,2470.297,2021-9-06T16:17:42Z
2021-09-06T14:19:25Z,42.805,6.029,13.2987,4.59999,2470.31,2021-9-06T16:20:45Z
2021-09-06T14:22:28Z,42.805,6.029,13.2987,4.60001,2470.297,2021-9-06T16:23:48Z
2021-09-06T14:25:31Z,42.805,6.029,13.2987,4.60003,2470.32,2021-9-06T16:26:51Z
2021-09-06T14:28:34Z,42.805,6.029,13.2986,4.60001,2470.297,2021-9-06T16:29:54Z
2021-09-06T14:31:37Z,42.805,6.029,13.2987,4.60003,2470.32,2021-9-06T16:32:57Z
2021-09-06T14:34:40Z,42.805,6.029,13.2988,4.60002,2470.357,2021-9-06T16:36:01Z
2021-09-06T14:37:43Z,42.805,6.029,13.2986,4.60002,2470.31,2021-9-06T16:39:04Z
2021-09-06T14:40:46Z,42.805,6.029,13.2984,4.60003,2470.297,2021-9-06T16:42:07Z
2021-09-06T14:43:50Z,42.805,6.029,13.2988,4.60002,2470.31,2021-9-06T16:45:10Z
2021-09-06T14:46:53Z,42.805,6.029,13.2988,4.60000,2470.32,2021-9-06T16:48:13Z
2021-09-06T14:49:56Z,42.805,6.029,13.2986,4.60000,2470.334,2021-9-06T16:51:16Z
2021-09-06T14:52:59Z,42.805,6.029,13.2985,4.60000,2470.32,2021-9-06T16:54:19Z
2021-09-06T14:56:02Z,42.805,6.029,13.2987,4.60002,2470.334,2021-9-06T16:57:22Z
2021-09-06T14:59:05Z,42.805,6.029,13.2986,4.60002,2470.32,2021-9-06T17:00:26Z
2021-09-06T15:02:08Z,42.805,6.029,13.2989,4.59999,2470.343,2021-9-06T17:03:29Z
2021-09-06T15:05:11Z,42.805,6.029,13.2986,4.60001,2470.366,2021-9-06T17:06:32Z
2021-09-06T15:08:15Z,42.805,6.029,13.2986,4.60000,2470.366,2021-9-06T17:09:35Z
2021-09-06T15:11:18Z,42.805,6.029,13.2986,4.60001,2470.343,2021-9-06T17:12:38Z
2021-09-06T15:14:21Z,42.805,6.029,13.2986,4.60002,2470.366,2021-9-06T17:15:41Z